COSMOS 2251 DEB, 35759

Orbit data source: Space-Track

COSMOS 2251 DEB, 35759 is space debris in LEO originally from a launch on Wed, 16 Jun 1993 UTC launched from the Plesetsk Missile And Space Complex (PKMTR). The debris from Iridium 33, an American commercial communications satellite, has been tracked extensively since its accidental collision with the defunct Russian satellite Cosmos 2251 in 2009. This event, occurring at high speed in low Earth orbit (LEO), generated thousands of pieces of space debris, significantly increasing the risk of further collisions. The Iridium 33 debris cloud has impacted space traffic management and orbital debris mitigation strategies, making it a subject of ongoing study in space situational awareness.

Loading next visibility...
Identifier
35759, 1993-036ARD
Orbit
LEO
Country
Flag of CISCIS
Related business
Manufacturer
Unknown
Mission
Spacecraft
Bus & Motor
Unknown
Mass
Unknown
Launch date (UTC)
1993-06-16 (33 years ago)
Launch vehicle
Unknown
Launch site
Plesetsk Missile And Space Complex (PKMTR)
Object type
Payload
Rocket body
Debris
Shape & HBR
Unknown shape, 0.1 m
Radar Cross Section
Small (<0.1 m²)

Expand to show TLE details & history
Last TLE update: 3 days ago

TLE from 3 days ago
0 COSMOS 2251 DEB
1 35759U 93036ARD 26034.63909994  .00002142  00000-0  38740-3 0  9998
2 35759  74.0381 114.3011 0077201 220.9219 138.6140 14.65132411669100
Epoch: 2026-02-03T15:20Z
TLE epoch observation values (Epoch: 2026-02-03T15:20:18.234Z)
Latitude
-0.00006°
Longitude
110.40796°
Altitude
720.348 km
Speed
7.474 km/s
True Right ascension
07h 37m 12s
True Declination
0° 00' 00"
Sunlit
Object was in full shadow at epoch
Visualization orbit readout
Latitude
Unknown
Longitude
Unknown
Altitude
Unknown
Speed
Unknown
Apparent Right ascension
Unknown
Apparent Declination
Unknown
Sunlit
N/A
Visualization observer readout
Local Sidereal Time
18:02:50
Azimuth
Unknown
Elevation
Unknown
Doppler factor
Unknown
Orbital elements
Apogee altitude
728.687 km
Perigee altitude
619.797 km
Semi-major axis
7,052.379 km
Eccentricity
0.00772
Inclination
74.0381°
RAAN
114.3011°
Arg. of periapsis
220.9219°
True anomaly
139.19466°
Mean anomaly
138.614°
Eccentric anomaly
138.90475°
Mean motion
3.66471 °/min
Orbital period
98.23 mins
BSTAR
0.0003874
Loading maneuver chart data...
Computing Atmospheric mass density...

Documentation

Showing up to 5 results
|